| time (UTC) | temp C | wind direction | speed KPH | gust KPH | rain 1hr cm | rain 24hr cm | rain mn cm | humidity % | barometer mb |
| 20260507150056 | 11 | 104 | 0.0 | 4.8 | 0.00 | 0.00 | 0.00 | 46 | 1016.5 |
| 20260507145551 | 11 | 137 | 3.2 | 6.4 | 0.00 | 0.00 | 0.00 | 44 | 1016.4 |
| 20260507145049 | 11 | 113 | 1.6 | 4.8 | 0.00 | 0.00 | 0.00 | 46 | 1016.5 |
| 20260507144545 | 11 | 65 | 3.2 | 9.7 | 0.00 | 0.00 | 0.00 | 42 | 1016.2 |
| 20260507144044 | 11 | 76 | 3.2 | 11.3 | 0.00 | 0.00 | 0.00 | 42 | 1016.4 |
| 20260507143540 | 11 | 103 | 4.8 | 4.8 | 0.00 | 0.00 | 0.00 | 46 | 1016.4 |
| 20260507143038 | 11 | 144 | 3.2 | 4.8 | 0.00 | 0.00 | 0.00 | 42 | 1016.4 |
| 20260507142533 | 11 | 91 | 4.8 | 6.4 | 0.00 | 0.00 | 0.00 | 44 | 1016.5 |
| 20260507142031 | 10 | 115 | 3.2 | 9.7 | 0.00 | 0.00 | 0.00 | 45 | 1016.5 |
| 20260507141527 | 10 | 112 | 4.8 | 9.7 | 0.00 | 0.00 | 0.00 | 45 | 1016.5 |
| 20260507141024 | 10 | 129 | 0.0 | 9.7 | 0.00 | 0.00 | 0.00 | 44 | 1016.4 |
| 20260507140520 | 10 | 340 | 3.2 | 4.8 | 0.00 | 0.00 | 0.00 | 45 | 1016.5 |
| 20260507140018 | 10 | 122 | 0.0 | 3.2 | 0.00 | 0.00 | 0.00 | 45 | 1016.4 |
| 20260507135515 | 10 | 109 | 1.6 | 11.3 | 0.00 | 0.00 | 0.00 | 47 | 1016.4 |
| 20260507135012 | 10 | 150 | 1.6 | 4.8 | 0.00 | 0.00 | 0.00 | 48 | 1016.7 |
| 20260507134508 | 10 | 100 | 3.2 | 4.8 | 0.00 | 0.00 | 0.00 | 48 | 1016.4 |
| 20260507134004 | 10 | 99 | 1.6 | 4.8 | 0.00 | 0.00 | 0.00 | 49 | 1016.4 |
| 20260507133500 | 10 | 118 | 1.6 | 6.4 | 0.00 | 0.00 | 0.00 | 50 | 1016.4 |
| 20260507132959 | 10 | 112 | 1.6 | 6.4 | 0.00 | 0.00 | 0.00 | 51 | 1016.7 |
| 20260507132455 | 10 | 112 | 1.6 | 4.8 | 0.00 | 0.00 | 0.00 | 52 | 1016.6 |
| 20260507131951 | 10 | 113 | 1.6 | 3.2 | 0.00 | 0.00 | 0.00 | 54 | 1016.7 |
| 20260507131448 | 10 | 74 | 4.8 | 9.7 | 0.00 | 0.00 | 0.00 | 54 | 1016.5 |
| 20260507130945 | 9 | 109 | 1.6 | 1.6 | 0.00 | 0.00 | 0.00 | 59 | 1016.4 |
| 20260507130442 | 9 | 93 | 1.6 | 3.2 | 0.00 | 0.00 | 0.00 | 61 | 1016.3 |
| 20260507125941 | 8 | 102 | 1.6 | 9.7 | 0.00 | 0.00 | 0.00 | 58 | 1016.3 |
| 20260507125439 | 8 | 109 | 3.2 | 6.4 | 0.00 | 0.00 | 0.00 | 63 | 1016.4 |
| 20260507124936 | 8 | 104 | 1.6 | 3.2 | 0.00 | 0.00 | 0.00 | 63 | 1016.2 |
| 20260507124432 | 8 | 109 | 0.0 | 3.2 | 0.00 | 0.00 | 0.00 | 65 | 1016.4 |
| 20260507123930 | 8 | 111 | 0.0 | 1.6 | 0.00 | 0.00 | 0.00 | 68 | 1016.6 |
| 20260507123427 | 8 | 122 | 1.6 | 3.2 | 0.00 | 0.00 | 0.00 | 66 | 1016.7 |
| 20260507122923 | 8 | 107 | 1.6 | 4.8 | 0.00 | 0.00 | 0.00 | 68 | 1016.5 |
| 20260507122419 | 7 | 103 | 3.2 | 4.8 | 0.00 | 0.00 | 0.00 | 69 | 1016.7 |
| 20260507121915 | 7 | 118 | 0.0 | 1.6 | 0.00 | 0.00 | 0.00 | 69 | 1016.6 |
| 20260507121410 | 7 | 114 | 0.0 | 1.6 | 0.00 | 0.00 | 0.00 | 70 | 1016.6 |
| 20260507120908 | 7 | 101 | 1.6 | 3.2 | 0.00 | 0.00 | 0.00 | 69 | 1016.5 |
| 20260507120404 | 7 | 108 | 1.6 | 3.2 | 0.00 | 0.00 | 0.00 | 70 | 1016.4 |
| 20260507115900 | 7 | 110 | 0.0 | 3.2 | 0.00 | 0.00 | 0.00 | 71 | 1016.6 |
| 20260507115356 | 7 | 106 | 1.6 | 3.2 | 0.00 | 0.00 | 0.00 | 72 | 1016.6 |
| 20260507114852 | 7 | 108 | 1.6 | 3.2 | 0.00 | 0.00 | 0.00 | 73 | 1016.6 |
| 20260507114349 | 6 | 111 | 0.0 | 3.2 | 0.00 | 0.00 | 0.00 | 73 | 1016.5 |
| 20260507113846 | 6 | 108 | 0.0 | 3.2 | 0.00 | 0.00 | 0.00 | 75 | 1016.5 |
| 20260507113343 | 6 | 113 | 0.0 | 3.2 | 0.00 | 0.00 | 0.00 | 77 | 1016.6 |
| 20260507112841 | 6 | 111 | 0.0 | 1.6 | 0.00 | 0.00 | 0.00 | 79 | 1016.5 |
| 20260507112338 | 6 | 104 | 0.0 | 1.6 | 0.00 | 0.00 | 0.00 | 80 | 1016.8 |
| 20260507111836 | 5 | 124 | 0.0 | 1.6 | 0.00 | 0.00 | 0.00 | 82 | 1016.4 |
| 20260507111332 | 5 | 122 | 0.0 | 0.0 | 0.00 | 0.00 | 0.00 | 84 | 1016.5 |
| 20260507110828 | 5 | 122 | 0.0 | 0.0 | 0.00 | 0.00 | 0.00 | 84 | 1016.2 |
| 20260507110324 | 5 | 122 | 0.0 | 1.6 | 0.00 | 0.00 | 0.00 | 84 | 1016.2 |
| 20260507105822 | 5 | 121 | 0.0 | 0.0 | 0.00 | 0.00 | 0.00 | 84 | 1016.0 |
| 20260507105318 | 5 | 112 | 0.0 | 1.6 | 0.00 | 0.00 | 0.00 | 86 | 1015.9 |
| 20260507104815 | 5 | 123 | 0.0 | 1.6 | 0.00 | 0.00 | 0.00 | 89 | 1016.0 |
| 20260507104311 | 5 | 96 | 0.0 | 1.6 | 0.00 | 0.00 | 0.00 | 91 | 1015.9 |
| 20260507103807 | 5 | 116 | 0.0 | 0.0 | 0.00 | 0.00 | 0.00 | 91 | 1016.0 |
| 20260507103304 | 5 | 116 | 0.0 | 0.0 | 0.00 | 0.00 | 0.00 | 92 | 1016.0 |
| 20260507102801 | 5 | 116 | 0.0 | 0.0 | 0.00 | 0.00 | 0.00 | 92 | 1016.0 |
| 20260507102257 | 5 | 116 | 0.0 | 0.0 | 0.00 | 0.00 | 0.00 | 92 | 1016.0 |
| 20260507101754 | 5 | 116 | 0.0 | 0.0 | 0.00 | 0.00 | 0.00 | 91 | 1015.9 |
| 20260507101253 | 5 | 116 | 0.0 | 0.0 | 0.00 | 0.00 | 0.00 | 91 | 1015.9 |
| 20260507100751 | 5 | 116 | 0.0 | 0.0 | 0.00 | 0.00 | 0.00 | 91 | 1016.0 |
| 20260507100249 | 5 | 116 | 0.0 | 0.0 | 0.00 | 0.00 | 0.00 | 91 | 1015.8 |
| 20260507095747 | 5 | 116 | 0.0 | 0.0 | 0.00 | 0.00 | 0.00 | 91 | 1016.0 |
| 20260507095243 | 5 | 116 | 0.0 | 0.0 | 0.00 | 0.00 | 0.00 | 91 | 1015.9 |
| 20260507094740 | 5 | 116 | 0.0 | 0.0 | 0.00 | 0.00 | 0.00 | 92 | 1015.9 |
| 20260507094237 | 5 | 116 | 0.0 | 0.0 | 0.00 | 0.00 | 0.00 | 92 | 1015.9 |
| 20260507093734 | 5 | 116 | 0.0 | 0.0 | 0.00 | 0.00 | 0.00 | 92 | 1015.9 |
| 20260507093232 | 5 | 116 | 0.0 | 0.0 | 0.00 | 0.00 | 0.00 | 92 | 1015.9 |
| 20260507092730 | 5 | 116 | 0.0 | 0.0 | 0.00 | 0.00 | 0.00 | 92 | 1015.8 |
| 20260507092225 | 5 | 116 | 0.0 | 0.0 | 0.00 | 0.00 | 0.00 | 93 | 1015.7 |
| 20260507091722 | 5 | 116 | 0.0 | 0.0 | 0.00 | 0.00 | 0.00 | 93 | 1015.6 |
| 20260507091219 | 5 | 116 | 0.0 | 0.0 | 0.00 | 0.00 | 0.00 | 93 | 1015.6 |
| 20260507090714 | 5 | 116 | 0.0 | 0.0 | 0.00 | 0.00 | 0.00 | 93 | 1015.7 |
| 20260507090211 | 5 | 116 | 0.0 | 0.0 | 0.00 | 0.00 | 0.00 | 93 | 1015.5 |
| 20260507085708 | 5 | 116 | 0.0 | 0.0 | 0.00 | 0.00 | 0.00 | 93 | 1015.7 |
| 20260507085205 | 5 | 116 | 0.0 | 0.0 | 0.00 | 0.00 | 0.00 | 93 | 1015.5 |
| 20260507084702 | 5 | 116 | 0.0 | 0.0 | 0.00 | 0.00 | 0.00 | 92 | 1015.6 |
| 20260507084158 | 5 | 116 | 0.0 | 0.0 | 0.00 | 0.00 | 0.00 | 92 | 1015.6 |
| 20260507083655 | 5 | 116 | 0.0 | 0.0 | 0.00 | 0.00 | 0.00 | 92 | 1015.4 |
| 20260507083152 | 5 | 116 | 0.0 | 0.0 | 0.00 | 0.00 | 0.00 | 92 | 1015.5 |
| 20260507082648 | 5 | 116 | 0.0 | 0.0 | 0.00 | 0.00 | 0.00 | 92 | 1015.6 |
| 20260507082144 | 5 | 116 | 0.0 | 0.0 | 0.00 | 0.00 | 0.00 | 92 | 1015.3 |
| 20260507081641 | 5 | 116 | 0.0 | 0.0 | 0.00 | 0.00 | 0.00 | 92 | 1015.4 |
| 20260507081137 | 6 | 116 | 0.0 | 0.0 | 0.00 | 0.00 | 0.00 | 92 | 1015.3 |
| 20260507080634 | 6 | 116 | 0.0 | 0.0 | 0.00 | 0.00 | 0.00 | 91 | 1015.3 |
| 20260507080131 | 6 | 116 | 0.0 | 0.0 | 0.00 | 0.00 | 0.00 | 91 | 1015.3 |
| 20260507075630 | 6 | 116 | 0.0 | 0.0 | 0.00 | 0.00 | 0.00 | 91 | 1015.5 |
| 20260507075127 | 6 | 116 | 0.0 | 0.0 | 0.00 | 0.00 | 0.00 | 91 | 1015.4 |
| 20260507074624 | 6 | 116 | 0.0 | 0.0 | 0.00 | 0.00 | 0.00 | 91 | 1015.2 |
| 20260507074122 | 6 | 116 | 0.0 | 0.0 | 0.00 | 0.00 | 0.00 | 90 | 1015.2 |
| 20260507073618 | 6 | 116 | 0.0 | 0.0 | 0.00 | 0.00 | 0.00 | 90 | 1015.4 |
| 20260507073114 | 6 | 116 | 0.0 | 0.0 | 0.00 | 0.00 | 0.00 | 90 | 1015.4 |
| 20260507072613 | 6 | 116 | 0.0 | 0.0 | 0.00 | 0.00 | 0.00 | 90 | 1015.4 |
| 20260507072109 | 6 | 116 | 0.0 | 0.0 | 0.00 | 0.00 | 0.00 | 89 | 1015.3 |
| 20260507071607 | 6 | 116 | 0.0 | 0.0 | 0.00 | 0.00 | 0.00 | 89 | 1015.5 |
| 20260507071103 | 6 | 116 | 0.0 | 0.0 | 0.00 | 0.00 | 0.00 | 89 | 1015.4 |
| 20260507070600 | 6 | 116 | 0.0 | 0.0 | 0.00 | 0.00 | 0.00 | 89 | 1015.5 |
| 20260507070057 | 6 | 116 | 0.0 | 0.0 | 0.00 | 0.00 | 0.00 | 88 | 1015.3 |
| 20260507065553 | 6 | 116 | 0.0 | 0.0 | 0.00 | 0.00 | 0.00 | 88 | 1015.3 |
| 20260507065051 | 6 | 116 | 0.0 | 0.0 | 0.00 | 0.00 | 0.00 | 87 | 1015.5 |
| 20260507064548 | 6 | 116 | 0.0 | 0.0 | 0.00 | 0.00 | 0.00 | 87 | 1015.3 |
| 20260507064047 | 6 | 116 | 0.0 | 0.0 | 0.00 | 0.00 | 0.00 | 87 | 1015.5 |
| 20260507063543 | 7 | 116 | 0.0 | 0.0 | 0.00 | 0.00 | 0.00 | 87 | 1015.4 |
| 20260507063041 | 6 | 116 | 0.0 | 0.0 | 0.00 | 0.00 | 0.00 | 87 | 1015.6 |
| 20260507062537 | 6 | 116 | 0.0 | 0.0 | 0.00 | 0.00 | 0.00 | 87 | 1015.6 |
| 20260507062035 | 6 | 116 | 0.0 | 0.0 | 0.00 | 0.00 | 0.00 | 86 | 1015.5 |
| 20260507061533 | 7 | 116 | 0.0 | 0.0 | 0.00 | 0.00 | 0.00 | 85 | 1015.4 |
| 20260507061031 | 7 | 116 | 0.0 | 0.0 | 0.00 | 0.00 | 0.00 | 85 | 1015.5 |
| 20260507060528 | 7 | 116 | 0.0 | 0.0 | 0.00 | 0.00 | 0.00 | 84 | 1015.4 |
| 20260507060025 | 7 | 116 | 0.0 | 0.0 | 0.00 | 0.00 | 0.00 | 83 | 1015.4 |
| 20260507055525 | 7 | 116 | 0.0 | 0.0 | 0.00 | 0.00 | 0.00 | 84 | 1015.5 |
| 20260507055022 | 7 | 116 | 0.0 | 0.0 | 0.00 | 0.00 | 0.00 | 84 | 1015.5 |
| 20260507054518 | 7 | 116 | 0.0 | 0.0 | 0.00 | 0.00 | 0.00 | 83 | 1015.5 |
| 20260507054015 | 7 | 116 | 0.0 | 0.0 | 0.00 | 0.00 | 0.00 | 83 | 1015.6 |
| 20260507053513 | 7 | 116 | 0.0 | 0.0 | 0.00 | 0.00 | 0.00 | 83 | 1015.6 |
| 20260507053012 | 7 | 116 | 0.0 | 0.0 | 0.00 | 0.00 | 0.00 | 83 | 1015.6 |
| 20260507052509 | 7 | 116 | 0.0 | 0.0 | 0.00 | 0.00 | 0.00 | 83 | 1015.6 |
| 20260507052005 | 7 | 116 | 0.0 | 0.0 | 0.00 | 0.00 | 0.00 | 82 | 1015.6 |
| 20260507051503 | 7 | 116 | 0.0 | 0.0 | 0.00 | 0.00 | 0.00 | 82 | 1015.3 |
| 20260507051000 | 7 | 116 | 0.0 | 0.0 | 0.00 | 0.00 | 0.00 | 81 | 1015.4 |
| 20260507050456 | 7 | 116 | 0.0 | 0.0 | 0.00 | 0.00 | 0.00 | 81 | 1015.4 |
| 20260507045953 | 8 | 116 | 0.0 | 0.0 | 0.00 | 0.00 | 0.00 | 80 | 1015.4 |
| 20260507045449 | 8 | 116 | 0.0 | 0.0 | 0.00 | 0.00 | 0.00 | 78 | 1015.7 |
| 20260507044947 | 8 | 116 | 0.0 | 0.0 | 0.00 | 0.00 | 0.00 | 78 | 1015.7 |
| 20260507044443 | 8 | 116 | 0.0 | 0.0 | 0.00 | 0.00 | 0.00 | 78 | 1015.7 |
| 20260507043940 | 8 | 116 | 0.0 | 0.0 | 0.00 | 0.00 | 0.00 | 78 | 1015.7 |
| 20260507043436 | 8 | 116 | 0.0 | 0.0 | 0.00 | 0.00 | 0.00 | 78 | 1015.7 |
| 20260507042932 | 8 | 116 | 0.0 | 0.0 | 0.00 | 0.00 | 0.00 | 79 | 1015.8 |
| 20260507042429 | 8 | 116 | 0.0 | 0.0 | 0.00 | 0.00 | 0.00 | 78 | 1015.5 |
| 20260507041925 | 8 | 116 | 0.0 | 0.0 | 0.00 | 0.00 | 0.00 | 79 | 1015.6 |
| 20260507041422 | 8 | 116 | 0.0 | 0.0 | 0.00 | 0.00 | 0.00 | 81 | 1015.5 |
| 20260507040919 | 8 | 116 | 0.0 | 0.0 | 0.00 | 0.00 | 0.00 | 81 | 1015.7 |
| 20260507040415 | 8 | 116 | 0.0 | 0.0 | 0.00 | 0.00 | 0.00 | 80 | 1015.6 |
| 20260507035911 | 8 | 116 | 0.0 | 0.0 | 0.00 | 1.65 | 1.65 | 79 | 1015.6 |
| 20260507035407 | 8 | 116 | 0.0 | 0.0 | 0.00 | 1.65 | 1.65 | 80 | 1015.6 |
| 20260507034904 | 8 | 115 | 0.0 | 0.0 | 0.00 | 1.65 | 1.65 | 78 | 1015.7 |
| 20260507034401 | 8 | 115 | 0.0 | 0.0 | 0.00 | 1.65 | 1.65 | 77 | 1015.4 |
| 20260507033859 | 8 | 115 | 0.0 | 0.0 | 0.00 | 1.65 | 1.65 | 77 | 1015.7 |
| 20260507033357 | 8 | 115 | 0.0 | 0.0 | 0.00 | 1.65 | 1.65 | 77 | 1015.5 |
| 20260507032854 | 8 | 115 | 0.0 | 0.0 | 0.00 | 1.65 | 1.65 | 76 | 1015.5 |
| 20260507032350 | 8 | 115 | 0.0 | 0.0 | 0.00 | 1.65 | 1.65 | 75 | 1015.7 |
| 20260507031846 | 8 | 116 | 0.0 | 0.0 | 0.00 | 1.65 | 1.65 | 73 | 1015.6 |
| 20260507031343 | 8 | 116 | 0.0 | 0.0 | 0.00 | 1.65 | 1.65 | 74 | 1015.8 |
| 20260507030840 | 8 | 116 | 0.0 | 0.0 | 0.00 | 1.65 | 1.65 | 76 | 1015.5 |
| 20260507030338 | 8 | 115 | 0.0 | 0.0 | 0.00 | 1.65 | 1.65 | 78 | 1015.6 |
| 20260507025834 | 8 | 115 | 0.0 | 0.0 | 0.00 | 1.65 | 1.65 | 75 | 1015.5 |
| 20260507025332 | 8 | 115 | 0.0 | 0.0 | 0.00 | 1.65 | 1.65 | 74 | 1015.7 |
| 20260507024829 | 9 | 115 | 0.0 | 0.0 | 0.00 | 1.65 | 1.65 | 74 | 1015.7 |
| 20260507024326 | 9 | 115 | 0.0 | 0.0 | 0.00 | 1.65 | 1.65 | 72 | 1015.8 |
| 20260507023822 | 10 | 115 | 0.0 | 0.0 | 0.00 | 1.65 | 1.65 | 73 | 1015.7 |
| 20260507023319 | 10 | 115 | 0.0 | 0.0 | 0.00 | 1.65 | 1.65 | 66 | 1015.5 |
| 20260507022816 | 10 | 115 | 0.0 | 0.0 | 0.00 | 1.65 | 1.65 | 66 | 1015.5 |
| 20260507022313 | 10 | 115 | 0.0 | 0.0 | 0.00 | 1.65 | 1.65 | 69 | 1015.4 |
| 20260507021809 | 10 | 115 | 0.0 | 0.0 | 0.00 | 1.65 | 1.65 | 69 | 1015.4 |
| 20260507021304 | 10 | 115 | 0.0 | 0.0 | 0.00 | 1.65 | 1.65 | 70 | 1015.4 |
| 20260507020803 | 10 | 115 | 0.0 | 0.0 | 0.00 | 1.65 | 1.65 | 71 | 1015.5 |
| 20260507020259 | 10 | 115 | 0.0 | 0.0 | 0.00 | 1.65 | 1.65 | 71 | 1015.5 |
| 20260507015756 | 10 | 115 | 0.0 | 0.0 | 0.00 | 1.65 | 1.65 | 69 | 1015.4 |
| 20260507015254 | 10 | 115 | 0.0 | 0.0 | 0.00 | 1.65 | 1.65 | 69 | 1015.3 |
| 20260507014751 | 10 | 115 | 0.0 | 0.0 | 0.00 | 1.65 | 1.65 | 70 | 1015.3 |
| 20260507014247 | 11 | 115 | 0.0 | 0.0 | 0.00 | 1.65 | 1.65 | 69 | 1015.4 |
| 20260507013743 | 11 | 115 | 0.0 | 0.0 | 0.00 | 1.65 | 1.65 | 69 | 1015.2 |
| 20260507013241 | 11 | 115 | 0.0 | 0.0 | 0.00 | 1.65 | 1.65 | 67 | 1015.2 |
| 20260507012738 | 11 | 115 | 0.0 | 0.0 | 0.00 | 1.65 | 1.65 | 65 | 1015.2 |
| 20260507012233 | 11 | 115 | 0.0 | 0.0 | 0.00 | 1.65 | 1.65 | 66 | 1014.8 |
| 20260507011732 | 11 | 114 | 0.0 | 0.0 | 0.00 | 1.65 | 1.65 | 63 | 1014.8 |
| 20260507011228 | 11 | 114 | 0.0 | 0.0 | 0.00 | 1.65 | 1.65 | 63 | 1014.9 |
| 20260507010727 | 12 | 113 | 0.0 | 0.0 | 0.00 | 1.65 | 1.65 | 61 | 1014.9 |
| 20260507010223 | 12 | 116 | 0.0 | 1.6 | 0.00 | 1.65 | 1.65 | 61 | 1014.9 |
| 20260507005721 | 12 | 118 | 0.0 | 0.0 | 0.00 | 1.65 | 1.65 | 60 | 1015.0 |
| 20260507005217 | 12 | 118 | 0.0 | 0.0 | 0.00 | 1.65 | 1.65 | 60 | 1014.9 |
| 20260507004714 | 12 | 118 | 0.0 | 0.0 | 0.00 | 1.65 | 1.65 | 59 | 1014.7 |
| 20260507004212 | 12 | 129 | 1.6 | 3.2 | 0.00 | 1.65 | 1.65 | 58 | 1014.9 |
| 20260507003708 | 12 | 122 | 0.0 | 1.6 | 0.00 | 1.65 | 1.65 | 56 | 1014.7 |
| 20260507003203 | 12 | 107 | 1.6 | 3.2 | 0.00 | 1.65 | 1.65 | 56 | 1014.9 |
| 20260507002659 | 13 | 131 | 0.0 | 1.6 | 0.00 | 1.65 | 1.65 | 55 | 1014.5 |
| 20260507002155 | 13 | 123 | 0.0 | 3.2 | 0.00 | 1.65 | 1.65 | 54 | 1014.7 |
| 20260507001652 | 13 | 113 | 3.2 | 4.8 | 0.00 | 1.65 | 1.65 | 55 | 1014.6 |
| 20260507001150 | 13 | 132 | 1.6 | 3.2 | 0.00 | 1.65 | 1.65 | 54 | 1014.6 |
| 20260507000646 | 13 | 109 | 0.0 | 1.6 | 0.00 | 1.65 | 1.65 | 54 | 1014.5 |
| 20260507000141 | 13 | 135 | 3.2 | 3.2 | 0.00 | 1.65 | 1.65 | 54 | 1014.6 |
| 20260506235639 | 13 | 108 | 1.6 | 3.2 | 0.00 | 1.65 | 1.65 | 54 | 1014.4 |
| 20260506235139 | 14 | 110 | 0.0 | 3.2 | 0.00 | 1.65 | 1.65 | 52 | 1014.2 |
| 20260506234637 | 15 | 119 | 1.6 | 1.6 | 0.00 | 1.65 | 1.65 | 51 | 1014.1 |
| 20260506234133 | 14 | 119 | 0.0 | 3.2 | 0.00 | 1.65 | 1.65 | 52 | 1014.2 |
| 20260506233630 | 15 | 129 | 0.0 | 9.7 | 0.00 | 1.65 | 1.65 | 51 | 1014.1 |
| 20260506233128 | 15 | 108 | 1.6 | 14.5 | 0.00 | 1.65 | 1.65 | 50 | 1014.1 |
| 20260506232623 | 15 | 110 | 3.2 | 9.7 | 0.00 | 1.65 | 1.65 | 50 | 1014.2 |
| 20260506232119 | 15 | 101 | 6.4 | 9.7 | 0.00 | 1.65 | 1.65 | 51 | 1014.1 |
| 20260506231616 | 15 | 84 | 3.2 | 6.4 | 0.00 | 1.65 | 1.65 | 50 | 1014.1 |
| 20260506231115 | 15 | 91 | 3.2 | 6.4 | 0.00 | 1.65 | 1.65 | 49 | 1013.5 |
| 20260506230611 | 15 | 105 | 1.6 | 4.8 | 0.00 | 1.65 | 1.65 | 50 | 1013.7 |
| 20260506230109 | 15 | 109 | 1.6 | 3.2 | 0.00 | 1.65 | 1.65 | 51 | 1013.9 |
| 20260506225605 | 15 | 123 | 0.0 | 4.8 | 0.00 | 1.65 | 1.65 | 52 | 1013.9 |
| 20260506225101 | 15 | 106 | 1.6 | 4.8 | 0.00 | 1.65 | 1.65 | 50 | 1013.8 |
| 20260506224558 | 15 | 106 | 3.2 | 6.4 | 0.00 | 1.65 | 1.65 | 51 | 1014.0 |
| 20260506224055 | 15 | 105 | 3.2 | 4.8 | 0.00 | 1.65 | 1.65 | 50 | 1013.8 |
| 20260506223551 | 15 | 104 | 3.2 | 4.8 | 0.00 | 1.65 | 1.65 | 51 | 1013.9 |
| 20260506223047 | 15 | 108 | 3.2 | 6.4 | 0.00 | 1.65 | 1.65 | 49 | 1014.0 |
| 20260506222544 | 15 | 119 | 3.2 | 4.8 | 0.00 | 1.65 | 1.65 | 48 | 1014.2 |
| 20260506222040 | 15 | 125 | 3.2 | 4.8 | 0.00 | 1.65 | 1.65 | 47 | 1014.1 |
| 20260506221538 | 15 | 103 | 1.6 | 9.7 | 0.00 | 1.65 | 1.65 | 50 | 1014.3 |
| 20260506221036 | 15 | 106 | 1.6 | 6.4 | 0.00 | 1.65 | 1.65 | 47 | 1014.1 |
| 20260506220532 | 15 | 105 | 1.6 | 4.8 | 0.00 | 1.65 | 1.65 | 47 | 1014.1 |
| 20260506220027 | 15 | 111 | 1.6 | 3.2 | 0.00 | 1.65 | 1.65 | 49 | 1014.4 |
| 20260506215525 | 15 | 110 | 0.0 | 3.2 | 0.00 | 1.65 | 1.65 | 50 | 1014.3 |
| 20260506215020 | 15 | 111 | 0.0 | 4.8 | 0.00 | 1.65 | 1.65 | 48 | 1014.5 |
| 20260506214517 | 15 | 147 | 3.2 | 11.3 | 0.00 | 1.65 | 1.65 | 49 | 1014.3 |
| 20260506214015 | 16 | 123 | 0.0 | 4.8 | 0.00 | 1.65 | 1.65 | 48 | 1014.3 |
| 20260506213513 | 16 | 123 | 3.2 | 4.8 | 0.00 | 1.65 | 1.65 | 49 | 1014.3 |
| 20260506213009 | 16 | 90 | 3.2 | 4.8 | 0.00 | 1.65 | 1.65 | 48 | 1014.1 |
| 20260506212506 | 16 | 116 | 6.4 | 9.7 | 0.00 | 1.65 | 1.65 | 45 | 1014.0 |
| 20260506212001 | 16 | 104 | 3.2 | 4.8 | 0.00 | 1.65 | 1.65 | 47 | 1014.0 |
| 20260506211457 | 15 | 113 | 1.6 | 6.4 | 0.00 | 1.65 | 1.65 | 49 | 1014.1 |
| 20260506210954 | 15 | 93 | 4.8 | 11.3 | 0.00 | 1.65 | 1.65 | 47 | 1013.9 |
| 20260506210450 | 15 | 112 | 3.2 | 4.8 | 0.00 | 1.65 | 1.65 | 48 | 1013.9 |
| 20260506205948 | 15 | 113 | 3.2 | 11.3 | 0.00 | 1.65 | 1.65 | 49 | 1013.5 |
| 20260506205444 | 15 | 121 | 3.2 | 9.7 | 0.00 | 1.65 | 1.65 | 49 | 1013.7 |
| 20260506204940 | 15 | 124 | 3.2 | 9.7 | 0.00 | 1.65 | 1.65 | 51 | 1013.9 |
| 20260506204438 | 15 | 101 | 3.2 | 9.7 | 0.00 | 1.65 | 1.65 | 48 | 1013.4 |
| 20260506203935 | 15 | 136 | 6.4 | 9.7 | 0.00 | 1.65 | 1.65 | 49 | 1013.8 |
| 20260506203432 | 15 | 126 | 4.8 | 6.4 | 0.00 | 1.65 | 1.65 | 50 | 1013.8 |
| 20260506202929 | 15 | 123 | 3.2 | 11.3 | 0.00 | 1.65 | 1.65 | 51 | 1013.9 |
| 20260506202426 | 15 | 104 | 3.2 | 4.8 | 0.00 | 1.65 | 1.65 | 51 | 1013.7 |
| 20260506201922 | 15 | 109 | 3.2 | 4.8 | 0.00 | 1.65 | 1.65 | 50 | 1013.8 |
| 20260506201420 | 15 | 123 | 1.6 | 4.8 | 0.00 | 1.65 | 1.65 | 51 | 1013.8 |
| 20260506200916 | 16 | 102 | 4.8 | 4.8 | 0.00 | 1.65 | 1.65 | 50 | 1013.8 |
| 20260506200413 | 16 | 120 | 1.6 | 6.4 | 0.00 | 1.65 | 1.65 | 49 | 1013.8 |
| 20260506195909 | 16 | 126 | 1.6 | 3.2 | 0.00 | 1.65 | 1.65 | 49 | 1013.5 |
| 20260506195407 | 16 | 148 | 4.8 | 6.4 | 0.00 | 1.65 | 1.65 | 46 | 1013.8 |
| 20260506194903 | 16 | 92 | 3.2 | 4.8 | 0.00 | 1.65 | 1.65 | 44 | 1013.5 |
| 20260506194400 | 16 | 112 | 3.2 | 3.2 | 0.00 | 1.65 | 1.65 | 45 | 1013.5 |
| 20260506193857 | 16 | 114 | 0.0 | 1.6 | 0.00 | 1.65 | 1.65 | 44 | 1013.8 |
| 20260506193354 | 17 | 111 | 0.0 | 4.8 | 0.00 | 1.65 | 1.65 | 43 | 1013.8 |
| 20260506192850 | 17 | 106 | 1.6 | 3.2 | 0.00 | 1.65 | 1.65 | 45 | 1013.8 |
| 20260506192347 | 18 | 108 | 3.2 | 12.9 | 0.00 | 1.65 | 1.65 | 42 | 1013.7 |
| 20260506191844 | 17 | 129 | 3.2 | 9.7 | 0.00 | 1.65 | 1.65 | 41 | 1013.4 |
| 20260506191340 | 17 | 124 | 0.0 | 6.4 | 0.00 | 1.65 | 1.65 | 41 | 1013.4 |
| 20260506190838 | 16 | 112 | 0.0 | 6.4 | 0.00 | 1.65 | 1.65 | 44 | 1013.5 |
| 20260506190334 | 16 | 118 | 0.0 | 4.8 | 0.00 | 1.65 | 1.65 | 45 | 1013.3 |
| 20260506185831 | 17 | 103 | 3.2 | 6.4 | 0.00 | 1.65 | 1.65 | 45 | 1013.5 |
| 20260506185328 | 17 | 138 | 3.2 | 4.8 | 0.00 | 1.65 | 1.65 | 45 | 1013.4 |
| 20260506184825 | 17 | 194 | 1.6 | 9.7 | 0.00 | 1.65 | 1.65 | 45 | 1013.4 |
| 20260506184322 | 16 | 104 | 3.2 | 9.7 | 0.00 | 1.65 | 1.65 | 50 | 1013.4 |
| 20260506183820 | 17 | 103 | 6.4 | 11.3 | 0.00 | 1.65 | 1.65 | 45 | 1013.5 |
| 20260506183314 | 17 | 136 | 3.2 | 6.4 | 0.00 | 1.65 | 1.65 | 49 | 1013.3 |
| 20260506182812 | 17 | 104 | 3.2 | 6.4 | 0.00 | 1.65 | 1.65 | 52 | 1013.3 |
| 20260506182309 | 16 | 107 | 0.0 | 6.4 | 0.00 | 1.65 | 1.65 | 49 | 1013.4 |
| 20260506181807 | 16 | 115 | 3.2 | 4.8 | 0.00 | 1.65 | 1.65 | 48 | 1013.4 |
| 20260506181304 | 16 | 130 | 4.8 | 11.3 | 0.00 | 1.65 | 1.65 | 48 | 1013.4 |
| 20260506180802 | 16 | 90 | 6.4 | 16.1 | 0.00 | 1.65 | 1.65 | 48 | 1013.4 |
| 20260506180257 | 15 | 108 | 3.2 | 4.8 | 0.00 | 1.65 | 1.65 | 51 | 1013.5 |
| 20260506175754 | 16 | 65 | 8.0 | 17.7 | 0.00 | 1.65 | 1.65 | 49 | 1013.5 |
| 20260506175251 | 15 | 124 | 6.4 | 12.9 | 0.00 | 1.65 | 1.65 | 50 | 1013.9 |
| 20260506174748 | 16 | 108 | 6.4 | 14.5 | 0.00 | 1.65 | 1.65 | 51 | 1013.7 |
| 20260506174245 | 16 | 112 | 1.6 | 12.9 | 0.00 | 1.65 | 1.65 | 49 | 1013.8 |
| 20260506173743 | 16 | 123 | 0.0 | 4.8 | 0.00 | 1.65 | 1.65 | 51 | 1014.0 |
| 20260506173239 | 16 | 124 | 3.2 | 6.4 | 0.00 | 1.65 | 1.65 | 49 | 1013.8 |
| 20260506172736 | 15 | 123 | 3.2 | 4.8 | 0.00 | 1.65 | 1.65 | 50 | 1014.0 |
| 20260506172233 | 15 | 92 | 4.8 | 6.4 | 0.00 | 1.65 | 1.65 | 52 | 1013.9 |
| 20260506171731 | 15 | 117 | 6.4 | 9.7 | 0.00 | 1.65 | 1.65 | 51 | 1013.9 |
| 20260506171228 | 15 | 105 | 1.6 | 4.8 | 0.00 | 1.65 | 1.65 | 52 | 1014.2 |
| 20260506170725 | 15 | 114 | 1.6 | 11.3 | 0.00 | 1.65 | 1.65 | 51 | 1014.1 |
| 20260506170221 | 15 | 87 | 3.2 | 6.4 | 0.00 | 1.65 | 1.65 | 52 | 1014.2 |
| 20260506165720 | 15 | 155 | 1.6 | 4.8 | 0.00 | 1.65 | 1.65 | 55 | 1014.2 |
| 20260506165217 | 14 | 95 | 3.2 | 6.4 | 0.00 | 1.65 | 1.65 | 55 | 1014.3 |
| 20260506164714 | 14 | 179 | 4.8 | 11.3 | 0.00 | 1.65 | 1.65 | 56 | 1014.3 |
| 20260506164211 | 13 | 76 | 3.2 | 4.8 | 0.00 | 1.65 | 1.65 | 62 | 1014.4 |
| 20260506163707 | 13 | 114 | 4.8 | 6.4 | 0.00 | 1.65 | 1.65 | 55 | 1014.2 |
| 20260506163202 | 13 | 126 | 3.2 | 9.7 | 0.00 | 1.65 | 1.65 | 56 | 1014.2 |
| 20260506162659 | 13 | 106 | 3.2 | 6.4 | 0.00 | 1.65 | 1.65 | 60 | 1014.3 |
| 20260506162156 | 13 | 115 | 3.2 | 6.4 | 0.00 | 1.65 | 1.65 | 58 | 1014.2 |
| 20260506161653 | 13 | 150 | 3.2 | 6.4 | 0.00 | 1.65 | 1.65 | 61 | 1014.1 |
| 20260506161150 | 13 | 86 | 6.4 | 9.7 | 0.00 | 1.65 | 1.65 | 59 | 1014.1 |
| 20260506160648 | 13 | 136 | 0.0 | 3.2 | 0.00 | 1.65 | 1.65 | 60 | 1014.1 |
| 20260506160145 | 13 | 132 | 3.2 | 4.8 | 0.00 | 1.65 | 1.65 | 63 | 1014.1 |
| 20260506155643 | 13 | 95 | 3.2 | 4.8 | 0.00 | 1.65 | 1.65 | 61 | 1014.1 |
| 20260506155140 | 12 | 122 | 1.6 | 11.3 | 0.00 | 1.65 | 1.65 | 63 | 1014.1 |
| 20260506153242 | 12 | 112 | 3.2 | 4.8 | 0.00 | 1.65 | 1.65 | 64 | 1013.7 |
| 20260506152739 | 12 | 110 | 1.6 | 4.8 | 0.00 | 1.65 | 1.65 | 66 | 1014.1 |
| 20260506152236 | 12 | 133 | 6.4 | 11.3 | 0.00 | 1.65 | 1.65 | 64 | 1014.2 |
| 20260506151735 | 12 | 115 | 6.4 | 11.3 | 0.00 | 1.65 | 1.65 | 66 | 1014.1 |
| 20260506151231 | 12 | 93 | 6.4 | 6.4 | 0.00 | 1.65 | 1.65 | 68 | 1013.8 |
| 20260506150727 | 11 | 95 | 3.2 | 6.4 | 0.00 | 1.65 | 1.65 | 70 | 1013.4 |